Back to catalog

YUNHAI 1-02

AliveWeatherSSO
NORAD 44547·PAYLOAD·🇨🇳 China

Launched Sep 25, 2019 from Jiuquan Satellite Launch Center

Loading…

Next Passes (next 24 hours)

TLE

FreshSource: Space-Track

Epoch: Sep 14, 2026, 14:19 UTC

1 44547U 19063A   26257.59721491  .00000211  00000-0  93392-4 0  9997
2 44547  98.4147 265.4542 0004931 252.6583 107.4062 14.32598479364673

Track YUNHAI 1-02 in real time with AllMySat

Download on the App Store